Preview of NWS' New Version of Forecast
This preview is not operational and should not be used for support decisions.

Regional Weather Roundup (RWR)

Issued by National Weather Service (NWS)

                            
000
ASUS43 KDTX 230910
RWRMI 
MICHIGAN HOURLY REGIONAL WEATHER ROUNDUP
NATIONAL WEATHER SERVICE DETROIT/PONTIAC MI
500 AM EDT TUE JUL 23 2019

NOTE: "FAIR" INDICATES FEW OR NO CLOUDS BELOW 12,000 FEET WITH NO
SIGNIFICANT WEATHER AND/OR OBSTRUCTION TO VISIBILITY.

MIZ047>049-052>055-059>063-066>070-074>076-081>083-231000-
SOUTHEAST LOWER MICHIGAN
  
CITY           SKY/WX    TMP DP  RH WIND       PRES   REMARKS
ADRIAN         FAIR      58  50  75 NW5       30.04S                  
ALMA           FAIR      53  49  86 NW6       30.05R                  
ANN ARBOR        N/A    N/A N/A N/A MISG      30.02S                  
BAD AXE        FAIR      49  48  95 SE3       29.98F                  
CARO           FAIR      53  50  92 CALM      30.00S                  
DETROIT CITY   FAIR      60  51  72 W3        30.00S                  
DETROIT        FAIR      59  52  77 NW6       30.01S                  
FLINT          FAIR      57  50  77 W5        30.02S                  
GROSSE ILE     FAIR      60  54  80 N5        30.00S                  
HILLSDALE      FAIR      54  52  92 CALM      30.05S                  
HOWELL         FAIR      55  50  85 CALM      30.03S                  

CITY           SKY/WX    TMP DP  RH WIND       PRES   REMARKS
JACKSON        FAIR      54  51  90 W3        30.04S                  
LAMBERTVILLE   FAIR      58  56  94 CALM      30.02S                  
LANSING        FAIR      55  49  80 W3        30.04S                  
LAPEER         FAIR      55  52  90 CALM      30.01S                  
MASON          FAIR      58  52  81 CALM      30.04S                  
MONROE         FAIR      56  56  98 CALM      30.01S                  
MT. CLEMENS    FAIR     N/A N/A N/A W3          N/A                   
PONTIAC        FAIR      59  52  77 NW6       30.00S                  
PORT HOPE        N/A     65  54  67 NW10      29.96S                  
PORT HURON     FAIR      50  46  87 CALM      29.99S                  
TRI CITIES     FAIR      56  52  86 W8        30.03R                  
MIDLAND        FAIR      50  48  95 CALM      30.02S                  
TROY           FAIR      62  49  62 NW7       30.02S                  
SAGINAW HB     FAIR      55  50  82 W6        30.01S                  
$$
MIZ043>046-050>051-056>058-064>065-071>073-077>080-231000-
SOUTHWEST LOWER MICHIGAN
  
CITY           SKY/WX    TMP DP  RH WIND       PRES   REMARKS
BATTLE CREEK   FAIR      56  53  90 CALM      30.06R                  
BENTON HARBOR  FAIR      56  53  90 CALM      30.06F                  
BIG RAPIDS     FAIR      51  50  95 CALM      30.05S                  
COLDWATER      FAIR      54  54 100 CALM      30.05F                  
FREMONT        FAIR      51  51  99 CALM      30.05F                  
HOLLAND        FAIR      58  56  93 CALM      30.07S                  
GRAND RAPIDS   FAIR      61  50  67 NW8       30.06R                  
IONIA          FAIR     N/A N/A N/A NW5       30.04S                  
KALAMAZOO      FAIR      58  51  78 CALM      30.06S                  
LUDINGTON      FAIR      50  50  97 CALM      30.05S FOG              
MARSHALL       FAIR      55  54  95 CALM      30.05S                  
MOUNT PLEASANT FAIR      53  51  95 W3        30.03S                  
MUSKEGON       FAIR      57  54  89 CALM      30.06S                  
SOUTH HAVEN    FAIR      56  55  97 CALM      30.05F                  
$$
MIZ016>042-231000-
NORTHERN LOWER MICHIGAN
  
CITY           SKY/WX    TMP DP  RH WIND       PRES   REMARKS
ALPENA         FAIR      51  47  86 W3        29.99S                  
BEAVER ISLAND  CLOUDY    60  55  81 W7        30.02S                  
BELLAIRE       FAIR      51  49  95 CALM      30.04R                  
CADILLAC       FAIR      48  45  91 CALM      30.04F                  
CHARLEVOIX     FAIR      57  54  90 SW5       30.05S                  
FRANKFORT      FAIR      55  52  88 CALM      30.04F                  
GAYLORD        FAIR      52  46  80 CALM      30.04R                  
GRAYLING       FAIR      49  48  98 CALM      30.03R                  
HARBOR SPRINGS FAIR      58  56  92 CALM      30.01S                  
HOUGHTON LAKE  FAIR      53  49  86 NW3       30.04S                  
MANISTEE       FOG       52  52 100 CALM      30.05R VSB 3/4          
OSCODA         FAIR      52  46  80 NW7       29.98S                  
PELLSTON       FAIR      51  50  96 CALM      30.01S                  
ROGERS CITY    FAIR      57  49  74 W3        30.00S                  
TRAVERSE CITY  FAIR      55  50  83 CALM      30.02S                  
$$
MIZ007>008-015-231000-
EASTERN UPPER MICHIGAN
  
CITY           SKY/WX    TMP DP  RH WIND       PRES   REMARKS
KINROSS        CLOUDY    51  48  89 W5        29.99S                  
MACKINAC ISLAN MOCLDY    58  50  74 W7        29.99F                  
NEWBERRY       LGT RAIN  56  53  92 CALM      30.01S                  
S. S. MARIE    MOCLDY    56  50  80 NW6       29.98S                  
MUNISING         N/A     61  57  87 NW9       30.03R                  
$$
MIZ004>006-011>014-085-231000-
CENTRAL UPPER MICHIGAN
  
CITY           SKY/WX    TMP DP  RH WIND       PRES   REMARKS
MANISTIQUE     MOCLDY    56  55  94 NW8       30.01S                  
ESCANABA       CLOUDY    60  54  80 W5        30.04S                  
MENOMINEE      CLOUDY    61  54  77 NW6       30.06S                  
SAWYER-GWINN   FAIR      58  51  77 NW6       30.06R                  
$$
MIZ001>003-009>011-084-231000-
WESTERN UPPER MICHIGAN
  
CITY           SKY/WX    TMP DP  RH WIND       PRES   REMARKS
IRON MOUNTAIN  FAIR      57  52  83 N3        30.07R                  
HOUGHTON       FAIR      56  52  86 NW12      30.08R                  
COPPER HARBOR    N/A     59  56  89 N15G23    30.05R                  
IRONWOOD       FAIR      56  54  93 NW8       30.16R                  
$$

ABBREVIATIONS USED IN REMARKS
   TC - TEMPERATURE IN CELSIUS
  WCI - WIND CHILL INDEX
   HX - HEAT INDEX
  VSB - VISIBILITY